TimeEDT,TemperatureF,Dew PointF,Humidity,Sea Level PressureIn,VisibilityMPH,Wind Direction,Wind SpeedMPH,Gust SpeedMPH,PrecipitationIn,Events,Conditions,WindDirDegrees,DateUTC
12:53 AM,70.0,66.9,90,29.62,10.0,East,3.5,-,N/A,,Clear,80,2013-06-28 04:53:00
1:53 AM,69.1,66.0,90,29.62,10.0,Calm,Calm,-,N/A,,Clear,0,2013-06-28 05:53:00
2:20 AM,66.2,64.4,94,29.63,8.0,Calm,Calm,-,N/A,,Mostly Cloudy,0,2013-06-28 06:20:00
2:45 AM,69.8,66.2,88,29.62,9.0,Calm,Calm,-,N/A,,Scattered Clouds,0,2013-06-28 06:45:00
2:53 AM,70.0,66.0,87,29.62,9.0,Calm,Calm,-,N/A,,Partly Cloudy,0,2013-06-28 06:53:00
3:33 AM,69.8,66.2,88,29.61,8.0,Calm,Calm,-,N/A,,Mostly Cloudy,0,2013-06-28 07:33:00
3:53 AM,69.1,66.9,93,29.60,8.0,Calm,Calm,-,N/A,,Overcast,0,2013-06-28 07:53:00
4:37 AM,69.8,66.2,88,29.60,6.0,NNW,3.5,-,N/A,,Mostly Cloudy,340,2013-06-28 08:37:00
4:46 AM,69.8,68.0,94,29.60,7.0,North,3.5,-,N/A,,Mostly Cloudy,350,2013-06-28 08:46:00
4:53 AM,70.0,66.9,90,29.58,8.0,Calm,Calm,-,N/A,,Mostly Cloudy,0,2013-06-28 08:53:00
5:14 AM,69.8,66.2,88,29.60,9.0,Calm,Calm,-,N/A,,Mostly Cloudy,0,2013-06-28 09:14:00
5:30 AM,69.8,68.0,94,29.59,6.0,NW,3.5,-,N/A,,Mostly Cloudy,310,2013-06-28 09:30:00
5:53 AM,68.0,66.9,96,29.59,7.0,Calm,Calm,-,N/A,,Mostly Cloudy,0,2013-06-28 09:53:00
5:57 AM,68.0,66.2,94,29.59,6.0,SW,4.6,-,N/A,,Mostly Cloudy,230,2013-06-28 09:57:00
6:11 AM,68.0,66.2,94,29.59,5.0,SW,4.6,-,N/A,,Overcast,220,2013-06-28 10:11:00
6:36 AM,68.0,66.2,94,29.59,5.0,SSW,4.6,-,N/A,,Mostly Cloudy,200,2013-06-28 10:36:00
6:53 AM,68.0,66.0,93,29.58,5.0,South,3.5,-,N/A,,Mostly Cloudy,190,2013-06-28 10:53:00
7:05 AM,69.8,66.2,88,29.58,6.0,Calm,Calm,-,N/A,,Scattered Clouds,0,2013-06-28 11:05:00
7:53 AM,70.0,66.9,90,29.57,6.0,WSW,5.8,-,N/A,,Clear,250,2013-06-28 11:53:00
8:36 AM,71.6,68.0,88,29.58,10.0,SW,6.9,-,N/A,,Mostly Cloudy,230,2013-06-28 12:36:00
8:45 AM,71.6,68.0,88,29.58,10.0,WSW,6.9,-,N/A,,Scattered Clouds,240,2013-06-28 12:45:00
8:53 AM,72.0,66.9,84,29.57,10.0,WSW,5.8,-,N/A,,Partly Cloudy,240,2013-06-28 12:53:00
9:53 AM,73.9,69.1,85,29.55,10.0,West,9.2,-,N/A,,Clear,270,2013-06-28 13:53:00
10:53 AM,75.0,68.0,79,29.55,10.0,WNW,12.7,-,N/A,,Clear,290,2013-06-28 14:53:00
11:53 AM,75.0,68.0,79,29.55,10.0,WNW,10.4,-,N/A,,Clear,290,2013-06-28 15:53:00
12:50 PM,73.4,68.0,83,29.56,10.0,WNW,11.5,-,N/A,,Mostly Cloudy,290,2013-06-28 16:50:00
12:53 PM,75.0,68.0,79,29.55,10.0,WNW,10.4,-,N/A,,Scattered Clouds,300,2013-06-28 16:53:00
1:53 PM,75.9,69.1,79,29.53,10.0,WNW,9.2,-,N/A,,Scattered Clouds,290,2013-06-28 17:53:00
2:53 PM,75.0,66.9,76,29.53,10.0,WNW,11.5,-,N/A,,Clear,290,2013-06-28 18:53:00
3:53 PM,75.0,68.0,79,29.52,10.0,WNW,10.4,-,N/A,,Clear,300,2013-06-28 19:53:00
4:42 PM,71.6,66.2,83,29.54,10.0,WNW,13.8,-,N/A,,Mostly Cloudy,300,2013-06-28 20:42:00
4:53 PM,71.1,64.9,81,29.53,10.0,WNW,15.0,-,N/A,,Mostly Cloudy,300,2013-06-28 20:53:00
5:13 PM,71.6,64.4,78,29.54,10.0,WNW,9.2,-,N/A,,Mostly Cloudy,300,2013-06-28 21:13:00
5:53 PM,70.0,62.1,76,29.52,10.0,WNW,10.4,-,N/A,,Clear,290,2013-06-28 21:53:00
6:53 PM,71.1,62.1,73,29.52,10.0,WNW,8.1,-,N/A,,Clear,300,2013-06-28 22:53:00
7:53 PM,71.1,63.0,75,29.55,10.0,West,9.2,-,N/A,,Partly Cloudy,280,2013-06-28 23:53:00
8:53 PM,70.0,63.0,78,29.55,10.0,West,13.8,-,N/A,,Mostly Cloudy,270,2013-06-29 00:53:00
9:53 PM,66.9,60.1,79,29.54,10.0,WSW,9.2,-,N/A,,Clear,250,2013-06-29 01:53:00
10:45 PM,66.2,60.8,83,29.56,10.0,SW,9.2,-,N/A,,Mostly Cloudy,220,2013-06-29 02:45:00
10:53 PM,66.0,60.1,81,29.55,10.0,SW,9.2,-,N/A,,Mostly Cloudy,230,2013-06-29 02:53:00
11:16 PM,66.2,60.8,83,29.55,10.0,SW,6.9,-,N/A,,Mostly Cloudy,230,2013-06-29 03:16:00
11:53 PM,66.9,63.0,87,29.54,10.0,SW,6.9,-,N/A,,Mostly Cloudy,220,2013-06-29 03:53:00